{"data":{"norad_id":64741,"intl_designator":"2025-144T","name":"STARLINK-34205","alt_names":[],"object_type":"PAYLOAD","status":"ACTIVE","operator":null,"country":"US","launch_date":"2025-07-02","launch_site_code":"AFETR","launch_vehicle":null,"mission":null,"orbit_class":"UNKNOWN","rcs_meters":null,"size_class":null,"mass_kg":null,"dimensions":null,"purposes":["comms"],"wikipedia_slug":null,"has_3d_model":false,"image_url":null,"decayed_at":null,"tle_current":{"epoch":"2026-09-20T13:06:57.767616Z","epoch_age_seconds":123913,"freshness":"FRESH","line1":"1 64741U 25144T   26263.54650194  .00019074  00000+0  57413-3 0  9994","line2":"2 64741  53.1632 353.2367 0001337  95.3952 264.7203 15.34405055 69584","mean_motion":15.34405055,"eccentricity":0.0001337,"inclination_deg":53.1632,"raan_deg":353.2367,"arg_perigee_deg":95.3952,"mean_anomaly_deg":264.7203,"bstar":0.00057413,"rev_number":6958,"period_min":93.847448905856,"perigee_km":461.77359739172,"apogee_km":463.6028340544,"semimajor_km":6840.8252157231,"source":"CELESTRAK","updated_at":"2026-09-21T09:00:35.412442Z"}}}